Home   Weather   Salvador   Past weeks

Flag for Brazil Past Weather in Salvador, Bahia, Brazil — Yesterday and Last 2 Weeks

Now
81 °F

Passing clouds.


Feels Like: 83 °F
Forecast: 78 / 85 °F
Wind: 9 mph from Southeast

Location: Salvador Aeroporto

Current Time: Feb 23, 2017 at 1:50:27 am

Latest Report: Feb 23, 2017 at 1:00 am


Visibility: N/A

Pressure: 29.95 "Hg

Humidity: 66%

Dew Point: 68 °F

Location of SalvadorLocation

Past Weather in Salvador — Graph

°F

Salvador Temperature Yesterday

Maximum temperature yesterday: 86 °F (at 10:00 am)
Minimum temperature yesterday: 79 °F (at 4:00 am)
Average temperature yesterday: 82 °F

High & Low Weather Summary for the Past Weeks

 TemperatureHumidityPressure
High99 °F (Feb 19, 3:00 am)100% (Feb 16, 1:00 am)30.07 "Hg (Feb 16, 1:00 am)
Low72 °F (Feb 21, 9:00 am)39% (Feb 19, 3:00 am)29.80 "Hg (Feb 8, 4:00 pm)
Average82 °F69%29.93 "Hg
* Reported Feb 8 12:00 am — Feb 23 12:00 am, Salvador, Weather by CustomWeather, © 2017

Note: Actual official high and low records may vary slightly from our data, if they occured in-between our weather recording intervals... More about our weather records

Advertising

Salvador Weather History for the Previous 24 Hours

Scroll right to see more
 ConditionsComfort  
Time TempWeatherWind HumidityBarometerVisibility
12:00 am
Thu, Feb 23
81 °FPassing clouds.8 mph70%29.95 "HgN/A
11:00 pm
Wed, Feb 22
81 °FPassing clouds.10 mph70%29.98 "HgN/A
10:00 pm81 °FPassing clouds.10 mph70%29.98 "HgN/A
9:00 pm81 °FPassing clouds.10 mph70%29.98 "HgN/A
8:00 pm81 °FPassing clouds.10 mph66%29.95 "HgN/A
7:00 pm82 °FPassing clouds.9 mph66%29.95 "HgN/A
6:00 pm82 °FPassing clouds.9 mph70%29.95 "HgN/A
5:00 pm84 °FScattered clouds.10 mph66%29.92 "HgN/A
4:00 pm86 °FScattered clouds.9 mph62%29.92 "HgN/A
3:00 pm84 °FScattered clouds.12 mph66%29.92 "HgN/A
2:00 pm86 °FScattered clouds.14 mph62%29.95 "HgN/A
1:00 pm84 °FScattered clouds.13 mph66%29.95 "HgN/A
12:00 pm84 °FScattered showers. Broken clouds.14 mph66%N/AN/A
11:00 am86 °FScattered showers. Broken clouds.12 mph62%N/AN/A
10:00 am86 °FScattered showers. Scattered clouds.12 mph62%N/AN/A
9:00 am84 °FScattered clouds.13 mph66%29.98 "HgN/A
8:00 am82 °FScattered showers. Scattered clouds.10 mph70%N/AN/A
7:00 am81 °FScattered showers. Scattered clouds.8 mph74%29.95 "HgN/A
6:00 am79 °FScattered showers. Scattered clouds.8 mph79%29.95 "HgN/A
5:00 am79 °FPassing clouds.9 mph74%29.92 "HgN/A
4:00 am79 °FPartly cloudy.10 mph74%29.92 "HgN/A
3:00 am81 °FPassing clouds.9 mph74%29.92 "HgN/A
2:00 am81 °FPassing clouds.9 mph70%29.92 "HgN/A
1:00 am81 °FPassing clouds.9 mph70%29.95 "HgN/A
Weather by CustomWeather, © 2017

See weather overviewHow to use our weather pages